Simultaneous Nadir Overpasses (SNOs) Predictions

Prediction of SNOs between LANDSAT-8 and METOP-A Satellite Orbit:

Table of predicted SNOs for the next 14.0 days since TLE Epoch: 4/6/2019
Index Date (LANDSAT-8) Time (LANDSAT-8) Lat,Lon (LANDSAT-8) SZA (LANDSAT-8 ) Date (METOP-A) Time (METOP-A) Lat,Lon (METOP-A) SZA (METOP-A ) Distance(km) Time Diff (sec)
1 04/07/2019 10:29:54 -81.45,-112.14 102.86 04/07/2019 10:29:02 -81.46,-111.97 102.86 2.86 52
2 04/07/2019 11:19:20 81.46, 55.61 77.15 04/07/2019 11:19:42 81.46, 55.60 77.16 0.26 22
3 04/10/2019 06:04:08 -81.46, -45.55 103.86 04/10/2019 06:03:16 -81.46, -45.66 103.90 2.03 52
4 04/10/2019 06:53:34 81.47, 122.18 76.14 04/10/2019 06:53:55 81.46, 122.26 76.16 1.63 21
5 04/13/2019 01:38:23 -81.45, 20.63 104.90 04/13/2019 01:37:30 -81.46, 20.63 104.92 0.60 53
6 04/13/2019 02:27:49 81.45,-171.68 75.10 04/13/2019 02:28:09 81.46,-171.49 75.13 3.08 20
7 04/15/2019 21:12:36 -81.45, 87.17 105.88 04/15/2019 21:11:42 -81.46, 87.30 105.89 2.02 54
8 04/15/2019 22:02:02 81.46,-105.16 74.12 04/15/2019 22:02:22 81.46,-105.26 74.12 1.75 20
9 04/18/2019 16:46:50 -81.46, 153.69 106.84 04/18/2019 16:45:56 -81.46, 153.55 106.88 2.37 54




NCC Satellite Simultaneous Nadir Overpasses (SNOs) Prediction Service
